RH
18 25 25 24 24 25 24 21 23 22 28 37 44 49 44 32 49 66 73 70 76 74 72 66 61 56 48 55 59 57 62 60 62 64 59 61 66 61 62 67 67 71 67 67
23 26 22 21 22 23 26 26 26 25 21 36 49 46 48 46 43 44 58 73 72 75 80 79 64 49 51 46 66 59 62 46 59 66 59 61 59 61 63 66 69 67 63 63
25 21 20 21 22 25 31 29 27 26 25 30 44 44 55 47 54 49 45 62 71 71 83 84 70 55 57 52 51 55 64 65 65 59 58 60 62 65 65 64 64 66 54 57
22 18 21 28 22 26 34 21 22 22 26 36 33 34 67 61 47 42 41 67 74 70 79 82 68 66 47 34 47 54 62 62 64 58 64 60 64 66 67 64 61 51 47 49
24 20 23 28 26 27 26 19 19 17 24 28 26 33 34 56 39 37 59 68 67 66 75 82 70 64 50 45 47 67 70 66 58 60 65 63 61 64 64 48 65 71 61 63
21 19 23 22 21 27 23 22 20 28 34 34 30 31 34 48 36 38 38 44 55 62 58 72 70 66 63 54 56 73 73 60 62 64 65 66 65 70 74 74 78 81 73 92
17 18 20 19 23 25 26 24 28 26 37 33 35 44 51 38 36 40 42 49 50 49 54 57 78 78 82 75 61 84 64 72 71 70 70 75 76 76 77 82 89 90 94 90
22 23 22 19 22 26 20 29 32 30 35 30 32 58 44 42 44 40 40 44 49 55 55 68 72 80 80 71 77 67 71 76 73 79 78 77 78 80 83 84 82 80 80 78
17 16 10 14 16 20 21 18 18 24 27 38 51 43 40 37 39 41 41 46 55 71 78 74 70 73 71 75 68 66 71 80 81 77 77 77 78 75 73 71 70 68 67 66
12 15 10 8 8 11 14 13 16 26 25 58 56 52 69 52 44 46 48 49 76 79 80 82 82 88 75 73 78 78 79 85 84 80 76 64 57 58 60 58 59 62 64 66
11 11 9 7 9 9 14 15 15 20 28 59 68 59 57 52 57 60 62 52 74 75 78 77 79 86 87 84 82 85 81 75 69 60 56 53 55 58 60 63 71 74 75 76
9 12 11 9 8 9 13 15 16 22 19 30 46 48 48 52 53 64 68 65 66 72 80 77 76 82 91 77 75 66 61 57 52 53 54 56 62 66 70 73 75 76 76 79
10 12 11 10 10 9 10 11 14 20 26 31 36 45 59 66 66 65 67 68 75 77 77 75 74 71 64 60 54 51 48 47 51 55 57 62 66 71 77 78 80 79 80 81
18 14 11 12 12 15 16 16 14 16 26 28 31 55 57 65 67 63 59 61 71 67 62 60 58 58 52 51 50 49 48 50 56 58 59 63 68 74 78 80 78 75 84 81
8 10 11 11 11 13 16 15 16 17 18 24 31 36 31 51 58 62 58 61 64 67 60 54 60 67 61 55 52 52 51 51 55 63 65 70 76 79 80 75 74 80 83 80
12 10 11 11 12 12 17 17 16 17 19 20 36 34 32 41 55 62 64 60 57 62 50 50 65 64 65 59 55 54 54 54 58 65 70 74 78 81 80 81 78 80 76 76
21 14 17 15 13 19 22 30 25 33 36 29 31 36 45 53 54 58 64 65 61 54 46 55 63 62 66 62 56 57 56 57 60 67 73 76 80 80 82 78 77 77 75 70
44 20 26 19 20 20 22 34 32 37 39 43 43 38 36 43 46 46 57 61 55 48 44 54 60 63 67 58 57 57 57 59 63 70 74 76 75 80 78 76 77 75 72 72
65 50 44 24 29 25 34 36 34 38 41 46 45 43 39 39 51 57 50 50 49 45 43 52 56 66 68 60 60 59 59 60 63 70 75 76 75 82 78 81 76 77 73 70
58 66 55 65 42 38 45 43 41 33 48 40 49 58 46 42 57 63 60 45 57 53 51 56 62 68 67 66 62 58 60 60 63 69 73 75 76 74 80 76 78 77 71 69
86 84 76 72 53 50 50 51 41 30 36 44 48 55 60 58 74 56 69 72 67 72 65 67 75 74 72 68 60 60 63 63 63 69 71 71 70 77 81 84 84 74 69 70
79 87 81 81 67 53 61 48 48 54 60 45 55 50 48 59 60 58 66 71 73 81 82 78 78 75 68 60 60 65 65 62 64 66 68 71 74 75 76 74 70 70 74 75
83 83 89 74 79 72 71 64 60 66 72 47 58 52 49 50 52 73 81 80 82 85 86 80 78 70 66 64 62 64 64 64 66 65 70 74 76 75 71 72 68 71 74 68
58 66 80 74 56 65 71 62 60 62 62 59 50 53 54 68 67 76 81 83 85 84 83 77 75 75 72 65 60 56 62 63 63 66 68 70 74 74 72 72 71 70 74 64
66 56 57 73 70 69 57 66 75 68 63 58 48 54 57 61 66 67 76 79 76 73 73 70 71 65 58 52 51 58 62 62 60 62 62 64 66 64 63 63 60 60 60 56
72 68 60 70 68 76 74 75 56 51 52 65 63 66 54 59 68 70 76 70 67 70 71 71 68 61 58 57 55 56 56 56 56 57 59 59 57 57 54 53 53 57 57 57
Wind_Speed
7 6 2 2 2 6 2 1 4 6 9 6 7 4 7 4 8 13 9 10 4 7 3 8 16 15 21 16 19 21 20 23 22 18 15 12 16 15 12 8 7 10 8 13
6 4 5 2 6 2 4 7 7 5 7 5 6 9 7 8 4 7 9 12 14 9 4 14 15 19 21 19 20 25 22 20 22 22 20 16 11 12 13 6 8 11 12 8
5 6 9 5 5 5 3 4 7 6 2 6 7 7 5 6 6 7 10 15 13 15 12 9 17 23 14 15 23 18 18 22 25 25 15 13 10 10 9 6 7 8 10 14
6 3 9 9 6 2 5 15 13 14 9 5 5 4 4 6 12 8 6 17 15 16 15 11 20 18 14 11 13 15 18 26 30 18 12 11 9 6 3 8 7 8 3 2
10 4 7 6 8 5 11 13 11 4 6 5 4 3 3 1 8 6 6 13 14 21 19 17 22 23 22 16 16 16 22 31 22 19 12 9 7 4 5 4 6 6 9 8
10 3 6 8 6 11 4 6 1 4 4 3 5 4 3 4 5 3 3 4 19 22 21 20 29 29 25 17 18 17 25 21 17 16 12 7 4 6 6 5 3 4 6 3
8 4 6 4 3 5 4 6 3 4 4 4 5 4 7 9 6 3 5 8 7 19 22 21 19 24 17 18 22 20 26 19 16 13 9 7 8 7 9 7 9 13 7 8
4 8 7 6 7 9 2 7 5 5 4 3 6 4 5 6 8 8 7 4 11 11 13 18 21 23 20 25 24 24 23 17 14 12 11 10 8 11 11 9 9 10 6 4
5 8 9 6 7 10 9 4 7 6 3 4 2 1 6 7 6 4 5 8 9 10 13 16 19 18 22 24 27 21 17 15 18 16 13 11 9 10 15 14 10 7 3 4
8 5 9 15 1 6 10 5 0 3 1 2 2 3 6 9 7 7 12 11 12 14 13 12 13 19 23 26 25 23 22 20 20 17 17 15 11 9 9 8 6 4 4 4
7 6 19 2 5 10 2 3 4 6 6 6 4 6 7 10 7 12 9 10 16 15 14 12 13 20 23 25 25 21 21 21 20 18 16 12 12 12 8 7 7 5 5 6
12 8 8 13 8 6 9 11 7 5 4 2 5 5 4 7 11 8 6 7 7 12 12 12 17 20 22 24 22 23 21 18 15 15 15 13 14 12 10 8 5 4 6 6
7 3 7 11 8 6 3 4 6 5 4 6 6 5 4 7 7 7 12 8 9 11 11 12 16 17 23 23 24 20 16 15 14 17 16 14 12 9 9 7 4 3 3 4
11 4 7 12 8 4 2 3 1 5 3 4 6 6 8 9 12 7 6 7 11 9 14 13 10 15 24 24 23 19 16 14 16 14 11 9 7 6 5 3 3 2 3 4
6 7 6 7 6 4 5 8 4 6 6 7 8 14 21 17 17 8 10 10 9 9 8 11 11 12 23 24 22 17 14 13 11 13 10 8 7 6 3 3 3 2 5 6
8 1 3 3 2 2 5 7 3 2 4 6 13 7 8 8 3 5 5 8 9 14 14 12 13 18 21 25 24 20 16 13 11 11 10 9 7 5 3 4 5 5 4 3
4 4 4 6 5 6 4 3 3 5 1 4 9 7 7 4 10 9 9 8 14 18 18 16 17 22 24 28 27 23 18 15 12 11 11 9 7 5 4 2 4 3 3 2
4 3 3 4 3 0 4 7 7 10 8 9 7 17 19 14 11 6 7 9 15 18 17 15 20 23 27 31 27 23 20 17 14 13 12 10 6 6 4 3 2 1 1 4
7 2 3 3 3 2 3 5 5 5 4 5 10 8 2 7 5 5 11 9 16 20 17 24 29 27 30 30 27 26 22 17 13 13 13 9 6 7 5 4 2 1 1 4
10 8 4 3 4 3 2 8 7 2 5 2 2 8 6 8 7 5 2 14 7 19 23 25 23 24 29 30 30 28 22 17 14 13 12 7 4 6 4 4 1 1 3 4
4 4 4 4 3 1 4 14 4 5 5 2 3 4 5 6 6 4 6 12 17 17 21 24 24 24 28 31 30 24 19 15 12 14 9 5 5 5 5 4 5 4 1 2
4 3 2 2 2 3 6 7 5 5 5 6 3 3 4 6 4 4 6 11 16 15 22 25 26 25 31 27 21 17 16 13 15 11 7 6 5 4 8 7 6 4 2 3
3 6 6 5 4 4 3 6 5 3 4 3 6 5 4 2 4 6 7 11 14 20 20 24 29 29 23 18 15 15 14 16 13 8 7 8 9 8 7 7 6 5 4 4
3 5 4 5 2 1 6 5 6 7 5 6 4 10 8 7 11 10 11 12 11 19 21 26 27 23 19 19 16 14 17 14 10 9 8 9 9 13 13 13 11 9 9 11
4 1 1 4 2 2 7 4 3 4 1 7 11 14 14 11 7 10 8 8 11 15 19 26 25 24 22 18 14 15 15 11 6 6 7 10 11 12 14 15 14 12 12 11
4 7 4 6 8 6 6 8 9 9 14 5 5 10 7 10 8 7 7 10 14 16 21 21 23 25 21 17 14 12 10 8 6 7 9 9 11 12 13 11 13 15 15 13
Wind_Direction
303 58 181 243 174 207 119 28 165 256 178 170 202 160 244 233 141 175 179 165 190 271 334 186 197 197 188 208 229 216 206 204 195 202 197 214 229 236 248 247 255 242 252 258
354 287 188 87 43 93 62 283 235 309 276 150 164 232 233 249 255 182 184 181 186 213 191 215 206 204 211 197 183 186 196 200 198 208 204 212 234 246 256 264 243 236 248 247
194 233 155 91 342 298 6 201 255 200 87 44 104 315 258 277 252 279 234 193 179 178 199 202 214 223 244 176 172 183 197 195 201 197 200 215 225 229 192 220 227 242 270 242
239 253 167 134 178 114 335 280 269 238 148 196 178 245 266 264 288 276 301 160 178 178 213 196 212 220 241 192 179 193 207 196 195 192 203 217 214 210 197 217 242 245 268 19
255 178 158 173 225 126 245 277 275 160 135 106 193 85 260 101 259 118 170 152 177 185 195 190 208 214 207 211 221 205 192 192 195 193 207 207 206 153 136 119 199 228 239 288
241 197 173 203 220 182 241 276 308 42 89 52 260 138 251 230 190 141 63 261 162 190 195 197 198 214 226 218 224 215 205 190 185 192 202 205 147 153 176 158 152 143 197 155
285 220 235 240 248 322 98 80 306 360 14 201 231 63 248 259 243 150 41 338 118 163 188 189 191 206 220 216 213 219 191 185 178 181 179 167 145 131 119 112 121 120 130 95
220 295 191 223 195 184 267 145 165 207 210 192 243 190 271 314 11 119 121 255 121 111 119 163 178 185 204 210 208 188 184 179 170 152 143 136 125 120 118 108 105 107 106 62
187 262 273 202 221 164 228 196 200 118 37 95 213 141 7 26 265 105 149 147 121 112 118 132 157 161 166 171 178 182 173 150 144 143 141 136 128 124 122 119 108 96 55 360
220 271 235 273 58 275 190 192 130 22 95 87 327 192 193 194 258 148 184 144 140 132 126 128 128 136 158 166 160 162 160 147 136 133 133 128 126 128 125 109 91 66 21 360
164 149 268 98 198 247 306 204 83 118 136 160 167 252 198 201 164 180 202 164 149 145 144 140 130 132 136 152 150 149 141 137 135 136 134 129 122 129 120 100 85 67 54 43
199 163 240 233 255 231 197 192 150 128 248 181 151 254 142 199 199 166 121 125 168 149 150 144 141 128 132 141 142 143 146 145 144 139 132 123 125 126 117 100 79 37 49 49
173 217 243 298 339 356 242 177 155 112 83 192 141 241 194 237 246 184 159 131 141 146 137 132 133 136 144 153 149 148 145 141 140 140 135 129 122 119 112 103 77 51 46 53
100 125 163 227 220 178 319 332 161 135 117 211 206 178 248 241 217 174 167 155 136 148 153 148 146 147 144 151 146 147 145 142 147 147 144 135 132 126 111 65 7 27 71 58
119 172 163 227 210 234 241 241 265 180 201 171 197 170 205 209 213 188 184 152 127 162 177 159 154 144 142 153 153 155 152 152 150 149 141 129 132 131 102 44 43 83 89 47
352 342 117 303 280 346 283 276 286 338 46 273 149 203 167 203 85 224 189 174 172 168 180 165 156 145 149 160 159 157 158 159 160 154 146 144 146 133 105 79 79 83 75 44
35 121 86 269 292 33 349 238 268 91 318 115 160 179 139 180 205 201 164 212 179 174 178 169 162 163 164 169 167 169 166 165 166 159 157 154 155 149 139 93 98 95 79 4
14 88 112 222 32 53 259 7 44 115 54 335 92 144 160 180 203 167 185 186 184 185 176 175 164 171 172 172 170 169 171 173 170 168 167 169 178 173 175 157 160 166 81 318
73 114 74 137 137 256 43 4 2 353 75 297 97 97 160 168 89 291 205 215 209 193 177 175 173 171 172 172 172 171 170 173 174 175 174 177 186 188 197 186 181 335 310 357
50 51 98 22 98 147 296 312 325 42 360 142 133 140 159 151 168 247 243 240 194 191 158 162 165 162 167 176 175 174 174 175 178 177 180 191 211 210 213 208 243 205 318 321
27 11 59 50 65 334 347 309 296 128 232 319 258 198 188 152 190 189 235 132 170 148 141 143 148 152 169 174 172 174 174 185 182 177 185 191 200 205 229 245 216 257 334 33
130 169 122 82 88 19 344 334 80 226 273 241 155 219 196 201 230 352 118 143 127 119 115 132 134 150 169 168 172 171 179 178 172 178 197 192 197 220 228 255 236 215 263 316
181 178 168 150 206 265 316 282 320 74 320 347 147 224 183 87 33 70 117 113 113 126 127 140 146 150 158 167 177 170 177 174 175 182 199 217 225 235 242 246 236 238 266 232
218 178 180 135 105 220 356 318 334 24 353 294 344 225 203 161 132 130 123 117 123 130 133 136 139 144 154 170 182 190 177 180 178 191 214 229 230 234 248 253 257 262 241 222
211 84 85 31 239 231 10 290 249 46 67 339 345 272 143 137 108 111 112 109 123 127 134 149 154 158 163 165 173 172 176 187 201 214 234 247 252 255 259 257 256 251 243 235
202 180 147 206 193 138 222 255 91 2 298 281 224 291 127 118 102 100 94 121 140 146 154 159 166 168 172 175 176 183 192 201 218 228 247 268 297 260 271 265 259 247 251 253